TimePDT,TemperatureF,Dew PointF,Humidity,Sea Level PressureIn,VisibilityMPH,Wind Direction,Wind SpeedMPH,Gust SpeedMPH,PrecipitationIn,Events,Conditions,WindDirDegrees,DateUTC
12:56 AM,66.9,33.1,28,29.90,10.0,SSW,8.1,-,N/A,,Clear,210,2012-09-29 07:56:00
1:56 AM,66.9,34.0,30,29.91,10.0,WSW,6.9,-,N/A,,Clear,250,2012-09-29 08:56:00
2:56 AM,64.9,33.1,31,29.91,10.0,Calm,Calm,-,N/A,,Clear,0,2012-09-29 09:56:00
3:56 AM,63.0,34.0,34,29.91,10.0,Calm,Calm,-,N/A,,Clear,0,2012-09-29 10:56:00
4:56 AM,61.0,32.0,34,29.94,10.0,Calm,Calm,-,N/A,,Clear,0,2012-09-29 11:56:00
5:56 AM,64.0,34.0,33,29.95,10.0,Calm,Calm,-,N/A,,Clear,0,2012-09-29 12:56:00
6:56 AM,57.0,30.0,36,29.98,10.0,ESE,3.5,-,N/A,,Clear,120,2012-09-29 13:56:00
7:56 AM,64.0,34.0,33,30.01,10.0,Calm,Calm,-,N/A,,Clear,0,2012-09-29 14:56:00
8:56 AM,75.0,36.0,24,30.02,10.0,Calm,Calm,-,N/A,,Clear,0,2012-09-29 15:56:00
9:56 AM,80.1,36.0,20,30.02,10.0,NNE,3.5,-,N/A,,Clear,20,2012-09-29 16:56:00
10:56 AM,84.0,36.0,18,30.01,10.0,NE,3.5,-,N/A,,Clear,40,2012-09-29 17:56:00
11:56 AM,89.1,36.0,15,29.99,10.0,Calm,Calm,-,N/A,,Clear,0,2012-09-29 18:56:00
12:56 PM,93.9,36.0,13,29.97,10.0,NE,4.6,-,N/A,,Clear,40,2012-09-29 19:56:00
1:56 PM,95.0,34.0,12,29.95,10.0,ESE,8.1,-,N/A,,Clear,110,2012-09-29 20:56:00
2:56 PM,93.9,32.0,11,29.94,10.0,East,6.9,-,N/A,,Clear,80,2012-09-29 21:56:00
3:56 PM,93.9,32.0,11,29.93,10.0,NNW,4.6,-,N/A,,Clear,340,2012-09-29 22:56:00
4:56 PM,93.9,30.9,11,29.91,10.0,Variable,3.5,-,N/A,,Clear,0,2012-09-29 23:56:00
5:56 PM,91.9,30.0,11,29.91,10.0,Calm,Calm,-,N/A,,Clear,0,2012-09-30 00:56:00
6:56 PM,86.0,28.9,13,29.94,10.0,Calm,Calm,-,N/A,,Clear,0,2012-09-30 01:56:00
7:56 PM,81.0,28.0,14,29.95,10.0,WSW,9.2,-,N/A,,Clear,250,2012-09-30 02:56:00
8:56 PM,73.9,28.9,19,29.96,10.0,East,3.5,-,N/A,,Clear,90,2012-09-30 03:56:00
9:56 PM,73.9,28.0,18,29.98,10.0,SE,5.8,-,N/A,,Clear,140,2012-09-30 04:56:00
10:56 PM,77.0,33.1,20,29.97,10.0,South,9.2,-,N/A,,Clear,180,2012-09-30 05:56:00
11:56 PM,73.9,35.1,24,29.98,10.0,SW,6.9,-,N/A,,Clear,220,2012-09-30 06:56:00